Location: *
(43.9900°N, 3.4811°E)
Time: 11:38:21
(UTC+00:00)

Cosmos 1743 - Pass Details

Date: 25 August 2019
Orbit: 512 x 527 km, 82.5° (Epoch: 19 September)

Event Time Altitude Azimuth Distance (km) Brightness Sun altitude
Exits shadow 21:10:43 39° 14° (NNE) 776 3.7 -24.8°
Drops below altitude 10° 21:13:14 10° 10° (N) 1,745 5.8 -25.1°
Sets 21:15:22 0° 10° (N) 2,638 6.8 -25.3°
